weather.gov     
National Weather Service

Terminal Aerodrome Forecast
NWS Homepage
This page is being discontinued on March 12, 2014.
The same data is available at this site. Please update your bookmarks.
Thank you, and we apologize for the inconvenience.
Please send an email to SR-SRH.Webmaster@noaa.gov with any concerns.


Current Version
Previous Version:    01  02  03  04  05  06  07  08  09  10  11  12  13  14  15  16  17  18  19  20  21  22  23  24  25  
[Printable]
580
FTUS45 KBOI 210522
TAFMYL
TAF
KMYL 210522Z 2106/2206 VRB03KT P6SM -SHRA BKN050 OVC100
     FM210900 30012KT P6SM -RA OVC040
     FM211200 VRB05KT 6SM -RA OVC025
     FM212000 25012KT P6SM -SHRA SCT040 BKN060
     FM220000 VRB04KT P6SM VCSH SCT060=


580
FTUS45 KBOI 210522
TAFMYL
TAF
KMYL 210522Z 2106/2206 VRB03KT P6SM -SHRA BKN050 OVC100
     FM210900 30012KT P6SM -RA OVC040
     FM211200 VRB05KT 6SM -RA OVC025
     FM212000 25012KT P6SM -SHRA SCT040 BKN060
     FM220000 VRB04KT P6SM VCSH SCT060=




U.S. Dept. of Commerce
NOAA National Weather Service
1325 East West Highway
Silver Spring, MD 20910
E-mail: w-nws.webmaster@noaa.gov
Page last modified: May 16, 2007
NATIONAL WEATHER SERVICE: for Safety, for Work, for Fun - FOR LIFE